Location: *
(46.1006°N, 1.8394°E)
Time: 11:44:47
(UTC+00:00)

CZ-4C R/B - Pass Details

Date: 20 September 2019
Orbit: 654 x 1348 km, 63.4° (Epoch: 15 October)

Event Time Altitude Azimuth Distance (km) Brightness Sun altitude
Rises 21:41:42 0° 320° (NW) 3,669 6.5 -35.6°
Reaches altitude 10° 21:44:28 10° 331° (NNW) 2,829 5.7 -35.9°
Maximum altitude 21:50:28 32° 32° (NNE) 1,873 4.0 -36.5°
Enters shadow 21:50:37 32° 35° (NE) 1,878 4.0 -36.5°
